Location: Orinda
(37.8771°N, 122.1797°W)
Time: 16:44:50
(UTC+00:00)

Cosmos 407 Rocket - Pass Details

Date: 21 October 2019
Orbit: 744 x 786 km, 74.1° (Epoch: 17 November)

Event Time Altitude Azimuth Distance (km) Brightness Sun altitude
Exits shadow 12:21:12 40° 338° (NNW) 1,089 4.1 -24.7°
Drops below altitude 10° 12:24:49 10° 8° (N) 2,264 6.1 -24.0°
Sets 12:27:15 0° 13° (NNE) 3,191 6.9 -23.5°
